Tracking 19817 objects as of 19-Aug-2019
HD Live streaming from Space Station
objects crossing your sky now

COSMOS 2209

Track COSMOS 2209 now!
COSMOS 2209 is classified as:


NORAD ID: 22112
Int'l Code: 1992-059A
Perigee: 35,739.6 km
Apogee: 35,835.7 km
Inclination: 15.0 °
Period: 1,435.8 minutes
Semi major axis: 42158 km
RCS: 5.0119 m2 (large)
Launch date: September 10, 1992
Source: Commonwealth of Independent States (former USSR) (CIS)
Launch site: TYURATAM MISSILE AND SPACE COMPLEX (TTMTR)
aabbcc
Your satellite tracking list
Your tracking list is empty




NASA's NSSDC Master Catalog

Two Line Element Set (TLE):
1 22112U 92059A   19228.57307934 +.00000050 +00000-0 +00000-0 0  9998
2 22112 015.0086 003.1673 0011404 281.9833 071.0954 01.00293452098575
Source of the keplerian elements: AFSPC